Time,TemperatureF,DewpointF,PressureIn,WindDirection,WindDirectionDegrees,WindSpeedMPH,WindSpeedGustMPH,Humidity,HourlyPrecipIn,Conditions,Clouds,dailyrainin,SoftwareType,DateUTC
2013-04-14 00:03:00,58.0,52.0,30.04,SSE,147,3.0,5.0,79,0.00,,,0.00,,2013-04-14 04:03:00,
2013-04-14 00:13:00,58.0,52.0,30.04,SSE,147,3.0,5.0,79,0.00,,,0.00,,2013-04-14 04:13:00,
2013-04-14 00:23:00,57.0,51.0,30.04,SE,145,3.0,5.0,79,0.00,,,0.00,,2013-04-14 04:23:00,
2013-04-14 00:33:00,58.0,52.0,30.03,South,188,2.0,5.0,80,0.00,,,0.00,,2013-04-14 04:33:00,
2013-04-14 00:43:00,58.0,52.0,30.03,South,188,2.0,5.0,80,0.00,,,0.00,,2013-04-14 04:43:00,
2013-04-14 00:52:00,57.0,51.0,30.04,SSW,195,2.0,3.0,80,0.00,,,0.00,,2013-04-14 04:52:00,
2013-04-14 01:03:00,58.0,53.0,30.04,SSW,201,2.0,4.0,82,0.00,,,0.00,,2013-04-14 05:03:00,
2013-04-14 01:12:00,58.0,53.0,30.04,SSW,201,2.0,4.0,82,0.00,,,0.00,,2013-04-14 05:12:00,
2013-04-14 01:22:00,57.0,51.0,30.04,SSW,200,3.0,5.0,81,0.00,,,0.00,,2013-04-14 05:22:00,
2013-04-14 01:32:00,58.0,53.0,30.04,SSW,200,3.0,5.0,83,0.00,,,0.00,,2013-04-14 05:32:00,
2013-04-14 01:42:00,58.0,53.0,30.04,SSW,200,3.0,5.0,83,0.00,,,0.00,,2013-04-14 05:42:00,
2013-04-14 01:52:00,58.0,53.0,30.04,SW,221,3.0,5.0,83,0.00,,,0.00,,2013-04-14 05:52:00,
2013-04-14 02:02:00,58.0,53.0,30.04,SSW,198,3.0,5.0,84,0.00,,,0.00,,2013-04-14 06:02:00,
2013-04-14 02:12:00,58.0,53.0,30.04,SSW,198,3.0,5.0,84,0.00,,,0.00,,2013-04-14 06:12:00,
2013-04-14 02:22:00,58.0,53.0,30.04,SSW,204,3.0,4.0,84,0.00,,,0.00,,2013-04-14 06:22:00,
2013-04-14 02:32:00,58.0,54.0,30.04,SSW,208,2.0,4.0,86,0.00,,,0.00,,2013-04-14 06:32:00,
2013-04-14 02:42:00,58.0,54.0,30.04,SSW,208,2.0,4.0,86,0.00,,,0.00,,2013-04-14 06:42:00,
2013-04-14 02:52:00,58.0,54.0,30.03,South,181,2.0,3.0,86,0.00,,,0.00,,2013-04-14 06:52:00,
2013-04-14 03:03:00,58.0,54.0,30.03,SSW,198,2.0,4.0,86,0.00,,,0.00,,2013-04-14 07:03:00,
2013-04-14 03:12:00,58.0,54.0,30.03,SSW,198,2.0,4.0,86,0.00,,,0.00,,2013-04-14 07:12:00,
2013-04-14 03:22:00,58.0,54.0,30.03,SSW,204,3.0,4.0,87,0.00,,,0.00,,2013-04-14 07:22:00,
2013-04-14 03:33:00,55.0,51.0,30.03,SW,218,0.0,3.0,85,0.00,,,0.00,,2013-04-14 07:33:00,
2013-04-14 03:42:00,55.0,51.0,30.03,SW,218,0.0,3.0,85,0.00,,,0.00,,2013-04-14 07:42:00,
2013-04-14 03:52:00,54.0,51.0,30.04,WNW,295,0.0,1.0,90,0.00,,,0.00,,2013-04-14 07:52:00,
2013-04-14 04:03:00,53.0,51.0,30.04,WNW,295,0.0,1.0,92,0.00,,,0.00,,2013-04-14 08:03:00,
2013-04-14 04:12:00,53.0,51.0,30.04,WNW,295,0.0,1.0,92,0.00,,,0.00,,2013-04-14 08:12:00,
2013-04-14 04:23:00,54.0,51.0,30.04,NW,308,0.0,2.0,90,0.00,,,0.00,,2013-04-14 08:23:00,
2013-04-14 04:33:00,53.0,51.0,30.04,NW,308,0.0,1.0,93,0.00,,,0.00,,2013-04-14 08:33:00,
2013-04-14 04:42:00,53.0,51.0,30.04,NW,308,0.0,1.0,93,0.00,,,0.00,,2013-04-14 08:42:00,
2013-04-14 04:52:00,52.0,50.0,30.04,NW,306,0.0,2.0,93,0.00,,,0.00,,2013-04-14 08:52:00,
2013-04-14 05:03:00,52.0,50.0,30.05,WNW,300,1.0,2.0,94,0.00,,,0.00,,2013-04-14 09:03:00,
2013-04-14 05:12:00,52.0,50.0,30.05,WNW,300,1.0,2.0,94,0.00,,,0.00,,2013-04-14 09:12:00,
2013-04-14 05:22:00,52.0,51.0,30.05,NW,305,0.0,1.0,95,0.00,,,0.00,,2013-04-14 09:22:00,
2013-04-14 05:33:00,52.0,51.0,30.05,NW,306,0.0,1.0,95,0.00,,,0.00,,2013-04-14 09:33:00,
2013-04-14 05:43:00,52.0,51.0,30.05,NW,306,0.0,1.0,95,0.00,,,0.00,,2013-04-14 09:43:00,
2013-04-14 05:53:00,52.0,51.0,30.05,WNW,302,1.0,2.0,95,0.00,,,0.00,,2013-04-14 09:53:00,
2013-04-14 06:03:00,52.0,51.0,30.06,NW,309,1.0,2.0,95,0.00,,,0.00,,2013-04-14 10:03:00,
2013-04-14 06:12:00,52.0,51.0,30.06,NW,309,1.0,2.0,95,0.00,,,0.00,,2013-04-14 10:12:00,
2013-04-14 06:23:00,51.0,50.0,30.06,NW,308,0.0,1.0,96,0.00,,,0.00,,2013-04-14 10:23:00,
2013-04-14 06:33:00,51.0,50.0,30.06,NW,308,0.0,0.0,96,0.00,,,0.00,,2013-04-14 10:33:00,
2013-04-14 06:42:00,51.0,50.0,30.06,NW,308,0.0,0.0,96,0.00,,,0.00,,2013-04-14 10:42:00,
2013-04-14 06:52:00,51.0,50.0,30.07,NW,307,0.0,0.0,96,0.00,,,0.00,,2013-04-14 10:52:00,
2013-04-14 07:02:00,51.0,50.0,30.07,NW,308,0.0,0.0,97,0.00,,,0.00,,2013-04-14 11:02:00,
2013-04-14 07:13:00,51.0,50.0,30.07,NW,308,0.0,0.0,97,0.00,,,0.00,,2013-04-14 11:13:00,
2013-04-14 07:23:00,51.0,50.0,30.08,NW,308,0.0,1.0,96,0.00,,,0.00,,2013-04-14 11:23:00,
2013-04-14 07:33:00,51.0,50.0,30.09,NW,307,0.0,1.0,96,0.00,,,0.00,,2013-04-14 11:33:00,
2013-04-14 07:42:00,51.0,50.0,30.09,NW,307,0.0,1.0,96,0.00,,,0.00,,2013-04-14 11:42:00,
2013-04-14 07:52:00,51.0,50.0,30.09,NW,309,0.0,1.0,96,0.00,,,0.00,,2013-04-14 11:52:00,
2013-04-14 08:02:00,53.0,52.0,30.10,NW,307,0.0,0.0,96,0.00,,,0.00,,2013-04-14 12:02:00,
2013-04-14 08:12:00,53.0,52.0,30.10,NW,307,0.0,0.0,96,0.00,,,0.00,,2013-04-14 12:12:00,
2013-04-14 08:22:00,55.0,54.0,30.10,NW,309,0.0,0.0,96,0.00,,,0.00,,2013-04-14 12:22:00,
2013-04-14 08:32:00,57.0,56.0,30.11,NW,309,0.0,0.0,95,0.00,,,0.00,,2013-04-14 12:32:00,
2013-04-14 08:42:00,57.0,56.0,30.11,NW,309,0.0,0.0,95,0.00,,,0.00,,2013-04-14 12:42:00,
2013-04-14 08:52:00,60.0,58.0,30.11,NW,307,0.0,1.0,93,0.00,,,0.00,,2013-04-14 12:52:00,
2013-04-14 09:02:00,60.0,56.0,30.12,SSW,212,2.0,4.0,87,0.00,,,0.00,,2013-04-14 13:02:00,
2013-04-14 09:12:00,60.0,56.0,30.12,SSW,212,2.0,4.0,87,0.00,,,0.00,,2013-04-14 13:12:00,
2013-04-14 09:22:00,60.0,56.0,30.12,SSW,210,2.0,4.0,87,0.00,,,0.00,,2013-04-14 13:22:00,
2013-04-14 09:33:00,61.0,56.0,30.12,SSW,197,1.0,3.0,85,0.00,,,0.00,,2013-04-14 13:33:00,
2013-04-14 09:42:00,61.0,56.0,30.12,SSW,197,1.0,3.0,85,0.00,,,0.00,,2013-04-14 13:42:00,
2013-04-14 09:52:00,62.0,57.0,30.12,SSE,155,1.0,3.0,84,0.00,,,0.00,,2013-04-14 13:52:00,
2013-04-14 10:02:00,63.0,57.0,30.12,SSE,159,3.0,4.0,81,0.00,,,0.00,,2013-04-14 14:02:00,
2013-04-14 10:12:00,63.0,57.0,30.12,SSE,159,3.0,4.0,81,0.00,,,0.00,,2013-04-14 14:12:00,
2013-04-14 10:22:00,63.0,57.0,30.12,SSE,158,2.0,4.0,80,0.00,,,0.00,,2013-04-14 14:22:00,
2013-04-14 10:32:00,63.0,56.0,30.13,SSE,167,2.0,4.0,79,0.00,,,0.00,,2013-04-14 14:32:00,
2013-04-14 10:42:00,63.0,56.0,30.13,SSE,167,2.0,4.0,79,0.00,,,0.00,,2013-04-14 14:42:00,
2013-04-14 10:52:00,63.0,56.0,30.13,SSW,205,3.0,6.0,78,0.00,,,0.00,,2013-04-14 14:52:00,
2013-04-14 11:03:00,63.0,57.0,30.13,South,174,4.0,8.0,80,0.00,,,0.00,,2013-04-14 15:03:00,
2013-04-14 11:12:00,63.0,57.0,30.13,South,174,4.0,8.0,80,0.00,,,0.00,,2013-04-14 15:12:00,
2013-04-14 11:22:00,63.0,56.0,30.13,SSW,212,3.0,6.0,78,0.00,,,0.00,,2013-04-14 15:22:00,
2013-04-14 11:33:00,64.0,57.0,30.14,SSW,205,2.0,4.0,77,0.00,,,0.00,,2013-04-14 15:33:00,
2013-04-14 11:43:00,64.0,57.0,30.14,SSW,205,2.0,4.0,77,0.00,,,0.00,,2013-04-14 15:43:00,
2013-04-14 11:53:00,67.0,58.0,30.13,South,187,0.0,2.0,73,0.00,,,0.00,,2013-04-14 15:53:00,
2013-04-14 12:05:00,69.0,57.0,30.13,SSE,165,0.0,1.0,66,0.00,,,0.00,,2013-04-14 16:05:00,
2013-04-14 12:13:00,69.0,57.0,30.13,SSE,165,0.0,1.0,66,0.00,,,0.00,,2013-04-14 16:13:00,
2013-04-14 12:23:00,70.0,56.0,30.13,SSE,147,0.0,1.0,62,0.00,,,0.00,,2013-04-14 16:23:00,
2013-04-14 12:33:00,69.0,55.0,30.12,East,96,2.0,3.0,61,0.00,,,0.00,,2013-04-14 16:33:00,
2013-04-14 12:43:00,69.0,55.0,30.12,East,96,2.0,3.0,61,0.00,,,0.00,,2013-04-14 16:43:00,
2013-04-14 12:53:00,71.0,52.0,30.11,ENE,77,3.0,4.0,52,0.00,,,0.00,,2013-04-14 16:53:00,
2013-04-14 13:02:00,70.0,53.0,30.11,East,89,4.0,5.0,54,0.00,,,0.00,,2013-04-14 17:02:00,
2013-04-14 13:13:00,70.0,53.0,30.11,East,89,4.0,5.0,54,0.00,,,0.00,,2013-04-14 17:13:00,
2013-04-14 13:22:00,70.0,55.0,30.10,East,82,5.0,7.0,59,0.00,,,0.00,,2013-04-14 17:22:00,
2013-04-14 13:33:00,73.0,52.0,30.10,ENE,63,3.0,5.0,47,0.00,,,0.00,,2013-04-14 17:33:00,
2013-04-14 13:42:00,73.0,52.0,30.10,ENE,63,3.0,5.0,47,0.00,,,0.00,,2013-04-14 17:42:00,
2013-04-14 13:52:00,72.0,57.0,30.11,ENE,77,3.0,6.0,60,0.00,,,0.00,,2013-04-14 17:52:00,
2013-04-14 14:03:00,72.0,59.0,30.10,NE,36,3.0,6.0,64,0.00,,,0.00,,2013-04-14 18:03:00,
2013-04-14 14:12:00,72.0,59.0,30.10,NE,36,3.0,6.0,64,0.00,,,0.00,,2013-04-14 18:12:00,
2013-04-14 14:22:00,72.0,58.0,30.10,East,83,3.0,5.0,61,0.00,,,0.00,,2013-04-14 18:22:00,
2013-04-14 14:33:00,72.0,60.0,30.10,East,85,4.0,7.0,66,0.00,,,0.00,,2013-04-14 18:33:00,
2013-04-14 14:43:00,72.0,60.0,30.10,East,85,4.0,7.0,66,0.00,,,0.00,,2013-04-14 18:43:00,
2013-04-14 14:53:00,72.0,59.0,30.09,ENE,68,3.0,7.0,64,0.00,,,0.00,,2013-04-14 18:53:00,
2013-04-14 15:04:00,70.0,57.0,30.09,ENE,60,4.0,8.0,63,0.00,,,0.00,,2013-04-14 19:04:00,
2013-04-14 15:12:00,70.0,57.0,30.09,ENE,60,4.0,8.0,63,0.00,,,0.00,,2013-04-14 19:12:00,
2013-04-14 15:22:00,70.0,59.0,30.09,East,88,3.0,7.0,68,0.00,,,0.00,,2013-04-14 19:22:00,
2013-04-14 15:32:00,70.0,59.0,30.08,ESE,103,2.0,8.0,68,0.00,,,0.00,,2013-04-14 19:32:00,
2013-04-14 15:43:00,70.0,59.0,30.08,ESE,103,2.0,8.0,68,0.00,,,0.00,,2013-04-14 19:43:00,
2013-04-14 15:52:00,70.0,58.0,30.09,East,91,4.0,7.0,66,0.00,,,0.00,,2013-04-14 19:52:00,
2013-04-14 16:03:00,70.0,55.0,30.08,ESE,120,6.0,9.0,60,0.00,,,0.00,,2013-04-14 20:03:00,
2013-04-14 16:13:00,70.0,55.0,30.08,ESE,120,6.0,9.0,60,0.00,,,0.00,,2013-04-14 20:13:00,
2013-04-14 16:22:00,71.0,56.0,30.07,ESE,121,6.0,9.0,59,0.00,,,0.00,,2013-04-14 20:22:00,
2013-04-14 16:33:00,71.0,57.0,30.07,SE,127,5.0,9.0,62,0.00,,,0.00,,2013-04-14 20:33:00,
2013-04-14 16:43:00,71.0,57.0,30.07,SE,127,5.0,9.0,62,0.00,,,0.00,,2013-04-14 20:43:00,
2013-04-14 16:52:00,71.0,55.0,30.08,SE,134,6.0,9.0,58,0.00,,,0.00,,2013-04-14 20:52:00,
2013-04-14 17:02:00,71.0,57.0,30.08,SE,125,5.0,8.0,62,0.00,,,0.00,,2013-04-14 21:02:00,
2013-04-14 17:12:00,71.0,57.0,30.08,SE,125,5.0,8.0,62,0.00,,,0.00,,2013-04-14 21:12:00,
2013-04-14 17:23:00,70.0,54.0,30.08,ESE,120,6.0,8.0,56,0.00,,,0.00,,2013-04-14 21:23:00,
2013-04-14 17:33:00,70.0,57.0,30.08,ESE,118,4.0,6.0,63,0.00,,,0.00,,2013-04-14 21:33:00,
2013-04-14 17:43:00,70.0,57.0,30.08,ESE,118,4.0,6.0,63,0.00,,,0.00,,2013-04-14 21:43:00,
2013-04-14 17:53:00,70.0,56.0,30.08,ESE,120,4.0,6.0,62,0.00,,,0.00,,2013-04-14 21:53:00,
2013-04-14 18:03:00,70.0,55.0,30.09,SE,131,4.0,7.0,59,0.00,,,0.00,,2013-04-14 22:03:00,
2013-04-14 18:13:00,70.0,55.0,30.09,SE,131,4.0,7.0,59,0.00,,,0.00,,2013-04-14 22:13:00,
2013-04-14 18:23:00,70.0,56.0,30.09,SE,131,4.0,6.0,61,0.00,,,0.00,,2013-04-14 22:23:00,
2013-04-14 18:33:00,70.0,57.0,30.09,SSE,159,5.0,7.0,64,0.00,,,0.00,,2013-04-14 22:33:00,
2013-04-14 18:44:00,70.0,57.0,30.09,SSE,159,5.0,7.0,64,0.00,,,0.00,,2013-04-14 22:44:00,
2013-04-14 18:52:00,69.0,57.0,30.10,South,183,7.0,11.0,65,0.00,,,0.00,,2013-04-14 22:52:00,
2013-04-14 19:02:00,69.0,59.0,30.10,SSW,195,4.0,7.0,71,0.00,,,0.00,,2013-04-14 23:02:00,
2013-04-14 19:12:00,69.0,59.0,30.10,SSW,195,4.0,7.0,71,0.00,,,0.00,,2013-04-14 23:12:00,
2013-04-14 19:23:00,68.0,59.0,30.10,SSW,200,4.0,6.0,72,0.00,,,0.00,,2013-04-14 23:23:00,
2013-04-14 19:33:00,68.0,60.0,30.11,South,191,3.0,6.0,75,0.00,,,0.00,,2013-04-14 23:33:00,
2013-04-14 19:43:00,68.0,60.0,30.11,South,191,3.0,6.0,75,0.00,,,0.00,,2013-04-14 23:43:00,
2013-04-14 19:52:00,68.0,61.0,30.11,SSW,200,2.0,3.0,77,0.00,,,0.00,,2013-04-14 23:52:00,
2013-04-14 20:02:00,67.0,60.0,30.11,South,190,2.0,3.0,78,0.00,,,0.00,,2013-04-15 00:02:00,
2013-04-14 20:12:00,67.0,60.0,30.11,South,190,2.0,3.0,78,0.00,,,0.00,,2013-04-15 00:12:00,
2013-04-14 20:23:00,67.0,60.0,30.11,SSE,162,1.0,3.0,78,0.00,,,0.00,,2013-04-15 00:23:00,
2013-04-14 20:33:00,67.0,60.0,30.12,SE,146,1.0,2.0,78,0.00,,,0.00,,2013-04-15 00:33:00,
2013-04-14 20:42:00,67.0,60.0,30.11,East,81,2.0,3.0,79,0.00,,,0.00,,2013-04-15 00:42:00,
2013-04-14 20:52:00,67.0,60.0,30.11,East,81,2.0,3.0,79,0.00,,,0.00,,2013-04-15 00:52:00,
2013-04-14 21:03:00,66.0,58.0,30.11,East,84,2.0,3.0,75,0.00,,,0.00,,2013-04-15 01:03:00,
2013-04-14 21:12:00,66.0,58.0,30.11,East,84,2.0,3.0,75,0.00,,,0.00,,2013-04-15 01:12:00,
2013-04-14 21:23:00,66.0,59.0,30.12,East,89,8.0,8.0,78,0.00,,,0.00,,2013-04-15 01:23:00,
2013-04-14 21:33:00,66.0,60.0,30.12,East,82,6.0,8.0,80,0.00,,,0.00,,2013-04-15 01:33:00,
2013-04-14 21:42:00,66.0,60.0,30.12,East,82,6.0,8.0,80,0.00,,,0.00,,2013-04-15 01:42:00,
2013-04-14 21:52:00,65.0,59.0,30.12,ENE,71,7.0,8.0,81,0.00,,,0.00,,2013-04-15 01:52:00,
2013-04-14 22:03:00,65.0,59.0,30.11,ENE,74,3.0,9.0,82,0.00,,,0.00,,2013-04-15 02:03:00,
2013-04-14 22:12:00,65.0,59.0,30.11,ENE,74,3.0,9.0,82,0.00,,,0.00,,2013-04-15 02:12:00,
2013-04-14 22:22:00,64.0,58.0,30.11,ENE,73,2.0,6.0,80,0.00,,,0.00,,2013-04-15 02:22:00,
2013-04-14 22:32:00,64.0,57.0,30.09,NE,47,1.0,4.0,78,0.00,,,0.00,,2013-04-15 02:32:00,
2013-04-14 22:42:00,64.0,57.0,30.09,NE,47,1.0,4.0,78,0.00,,,0.00,,2013-04-15 02:42:00,
2013-04-14 22:52:00,64.0,58.0,30.08,ENE,65,1.0,5.0,80,0.00,,,0.00,,2013-04-15 02:52:00,
2013-04-14 23:03:00,64.0,59.0,30.09,ESE,103,3.0,8.0,83,0.00,,,0.00,,2013-04-15 03:03:00,
2013-04-14 23:12:00,64.0,59.0,30.09,ESE,103,3.0,8.0,83,0.00,,,0.00,,2013-04-15 03:12:00,
2013-04-14 23:22:00,64.0,58.0,30.10,ESE,122,3.0,6.0,80,0.00,,,0.00,,2013-04-15 03:22:00,
2013-04-14 23:33:00,64.0,58.0,30.10,SE,134,3.0,5.0,80,0.00,,,0.00,,2013-04-15 03:33:00,
2013-04-14 23:43:00,64.0,58.0,30.10,SE,134,3.0,5.0,80,0.00,,,0.00,,2013-04-15 03:43:00,
2013-04-14 23:54:00,64.0,58.0,30.10,ESE,117,2.0,4.0,80,0.00,,,0.00,,2013-04-15 03:54:00,